Dewpoint
-14 -13 -12 -11 -10 -10 -9 -10 -10 -11 -12 -13 -13 -13 -11 -10 -11 -14 -15 -12 -2 8 11 12 11 11 12 11 10 9 6 7 9
-14 -13 -11 -11 -10 -10 -9 -9 -9 -9 -10 -10 -10 -11 -12 -13 -12 -12 -10 -11 -14 -10 2 9 11 11 11 11 11 12 11 10 7
-14 -13 -12 -12 -11 -11 -11 -10 -10 -9 -10 -10 -10 -9 -8 -7 -6 -8 -10 -9 -8 -7 -6 -2 3 7 9 9 9 11 12 12 11
-15 -13 -12 -12 -12 -12 -12 -12 -11 -11 -11 -11 -10 -10 -10 -8 -7 -5 3 -6 1 6 4 -1 -3 -3 -1 0 6 10 11 12 12
-16 -15 -15 -15 -14 -15 -15 -14 -14 -13 -13 -12 -12 -11 -10 -6 -7 -4 -5 -3 -3 1 1 -1 -3 -3 -4 -5 -1 4 7 10 11
-14 -13 -11 -10 -9 -9 -8 -8 -8 -8 -8 -8 -9 -10 -8 -3 -3 1 -5 -3 -0 3 0 -0 -1 -1 -2 -3 -3 -2 -2 0 6
-11 -9 -8 -8 -8 -8 -8 -8 -8 -8 -8 -8 -8 -5 -4 -2 -1 3 -3 -2 7 6 2 1 0 1 1 6 5 5 1 -2 -4
-8 -8 -8 -9 -9 -9 -9 -9 -9 -9 -8 -8 -8 -8 -7 -1 3 1 -1 0 3 7 7 8 8 8 7 8 9 8 8 6 3
-9 -9 -9 -9 -9 -10 -10 -9 -9 -9 -9 -9 -9 -8 -8 -5 -2 4 0 2 4 7 8 8 8 8 8 9 9 8 8 8 8
-9 -10 -10 -10 -10 -10 -10 -9 -9 -9 -9 -9 -9 -8 -8 -6 -2 7 3 4 4 4 5 7 7 6 8 9 9 9 8 8 8
-10 -11 -11 -12 -11 -11 -11 -10 -10 -9 -9 -9 -8 -8 -8 -6 -1 7 6 5 5 5 5 5 4 4 6 7 8 8 8 8 8
-12 -12 -13 -13 -13 -13 -12 -11 -11 -10 -10 -9 -8 -6 -3 -2 6 7 7 7 6 6 6 5 5 5 4 6 7 8 8 8 8
-12 -13 -13 -14 -14 -14 -13 -13 -12 -11 -10 -8 -6 -2 -1 6 7 7 6 5 4 5 4 3 3 2 1 4 5 4 4 4 8
-12 -12 -13 -14 -13 -13 -13 -12 -12 -11 -10 -7 -2 3 6 6 6 6 5 4 4 4 4 4 3 1 -1 -1 3 4 3 3 3
-11 -12 -13 -14 -14 -13 -13 -12 -11 -11 -10 -7 -0 4 5 7 6 5 4 4 4 4 3 1 1 -5 -6 -2 1 3 3 3 2
-11 -12 -13 -14 -14 -15 -14 -14 -13 -12 -11 -1 2 3 5 5 4 5 4 4 4 2 -3 -5 -5 -6 -6 -2 -0 1 2 2 0
-11 -11 -12 -13 -14 -15 -15 -15 -14 -13 -13 -10 -4 -1 2 5 1 -2 -1 1 -3 -6 -6 -3 -1 0 1 -0 -1 -1 -1 -1 -3
-10 -10 -12 -12 -13 -14 -15 -15 -15 -15 -14 -13 -6 -1 -2 -0 -1 -3 -4 -7 -7 -6 -6 -6 -2 -0 -0 -1 -3 -6 -7 -8 -8
-9 -10 -11 -11 -12 -13 -14 -14 -15 -15 -15 -13 -14 -12 -9 -0 -2 -1 -3 -5 -9 -12 -7 -5 -4 -3 -2 -3 -6 -6 -6 -6 -6
-9 -9 -10 -11 -12 -13 -14 -14 -14 -15 -15 -15 -14 -12 -10 -8 0 -3 -4 -4 -3 -9 -9 -7 -7 -3 -4 -6 -10 -8 -7 -6 -6
Wind_Speed
11 10 10 9 9 9 8 8 7 7 6 6 7 7 7 8 10 12 14 14 15 14 13 14 12 12 10 13 13 12 12 12 11
10 10 10 10 9 9 10 9 9 8 7 7 7 7 6 6 7 8 9 11 12 12 14 15 13 13 14 14 13 15 14 13 14
11 12 12 11 11 11 11 10 10 9 9 8 8 7 6 6 6 5 5 5 6 7 12 16 16 17 17 16 15 13 15 14 15
13 13 12 12 12 11 11 11 11 11 11 10 10 9 8 7 7 5 4 3 1 4 10 13 14 16 18 17 16 15 13 14 16
12 11 11 11 11 11 11 11 11 11 11 10 10 10 8 8 8 7 6 5 4 6 10 11 12 12 13 15 15 17 17 16 16
10 11 11 11 12 12 11 11 11 11 11 10 10 9 8 7 7 6 6 5 5 7 10 11 10 11 12 12 13 15 17 20 20
10 11 11 11 12 12 12 12 12 12 11 11 10 9 8 7 7 5 6 4 4 7 9 10 10 10 11 9 9 11 13 16 18
11 11 12 12 13 13 14 14 14 14 13 12 11 10 8 6 6 6 6 5 6 6 8 8 10 12 9 8 8 9 12 12 13
11 12 13 13 14 14 15 15 15 14 13 13 11 10 8 6 4 5 5 4 4 3 3 5 4 4 7 7 6 7 9 10 11
12 12 13 14 14 14 13 13 14 14 12 12 11 9 7 5 3 1 4 4 5 6 5 6 5 3 4 5 7 8 9 9 8
11 12 13 13 13 14 14 15 15 14 14 12 11 9 6 5 3 3 3 4 6 7 6 7 8 7 6 7 8 8 9 8 7
11 11 12 13 14 14 14 14 14 13 13 12 10 8 5 3 3 3 2 3 6 7 8 9 10 10 9 8 8 8 8 8 9
11 12 13 14 14 14 14 13 13 12 11 9 8 6 3 4 3 2 3 5 7 8 9 10 11 11 12 10 9 11 12 12 9
10 10 11 12 13 13 14 13 13 12 10 7 5 4 4 5 3 2 6 9 11 10 13 15 15 13 13 13 12 13 14 14 14
9 11 12 13 13 13 13 14 13 13 10 6 3 2 1 2 1 5 10 12 15 17 18 16 16 14 12 12 12 13 14 14 15
9 10 11 12 12 13 13 13 12 12 11 7 3 2 2 1 5 8 11 13 16 17 17 16 13 12 11 11 12 13 15 16 17
7 9 9 10 11 11 11 12 12 12 12 10 4 4 3 4 11 11 12 12 16 17 15 12 11 10 10 11 12 14 16 16 16
6 7 8 9 10 10 11 11 12 12 12 11 6 4 4 10 5 5 6 11 12 13 15 12 10 10 10 12 14 15 16 17 16
7 7 7 8 9 9 10 11 10 11 10 10 8 5 5 4 6 6 7 11 10 14 11 11 12 12 14 15 16 17 16 15 15
7 7 7 8 8 8 9 9 9 9 9 9 9 8 8 6 5 9 10 11 10 12 9 11 10 13 13 15 17 16 16 15 14
Wind_Direction
15 15 13 14 14 12 9 8 4 358 346 336 325 314 301 290 280 273 269 265 263 266 272 271 271 271 271 261 261 262 256 250 249
21 20 19 17 13 11 11 8 7 7 3 356 348 340 333 326 316 302 289 277 271 266 264 265 267 268 269 269 269 258 259 258 253
23 25 21 18 14 12 9 7 4 2 2 1 357 351 348 348 334 330 325 296 275 268 256 263 265 266 268 275 271 266 257 258 257
25 24 23 23 20 16 13 9 5 2 360 356 354 353 351 347 333 336 348 299 247 260 268 275 276 273 271 269 267 264 266 262 259
26 25 27 27 24 23 20 16 12 10 5 360 355 353 351 349 340 336 320 309 288 282 283 287 286 284 281 276 268 263 262 265 266
30 30 28 24 21 18 15 12 10 8 6 2 359 354 351 346 342 340 330 314 302 295 296 300 297 293 290 284 276 271 265 261 262
31 26 20 14 10 7 3 1 359 359 357 355 355 352 345 342 341 332 326 318 323 314 309 308 306 299 293 297 295 294 283 273 269
23 16 10 7 5 3 360 355 354 352 350 347 346 343 341 338 339 322 322 322 336 350 357 360 355 349 340 319 296 289 296 292 281
17 11 6 3 0 356 353 349 348 349 348 344 342 334 329 324 318 315 302 315 314 349 320 325 327 6 359 355 352 335 331 324 319
6 5 4 1 359 357 352 348 348 348 344 339 336 330 320 304 283 278 288 310 318 331 340 331 345 298 337 332 314 313 307 304 315
11 10 6 2 1 357 355 351 352 351 346 342 336 329 309 280 239 171 297 311 321 327 330 337 341 338 325 299 292 305 302 308 295
11 8 5 3 2 0 359 356 353 349 345 344 345 345 323 247 170 168 214 325 318 328 334 333 329 326 326 334 322 317 316 312 306
7 7 6 5 4 1 360 358 359 356 353 357 358 10 46 119 170 229 314 315 316 330 333 333 325 320 316 310 307 307 306 305 317
8 8 7 7 7 6 3 3 5 6 0 3 13 43 115 157 207 279 316 314 317 324 320 319 317 312 311 306 306 310 313 313 314
4 5 7 8 9 9 9 8 9 10 8 9 14 61 128 160 232 286 298 303 312 318 317 316 310 310 304 302 305 307 310 314 315
2 5 6 8 10 13 14 14 19 18 15 15 359 326 309 248 264 282 289 298 307 316 318 314 304 301 301 305 308 307 309 313 313
354 360 3 6 9 12 14 15 18 22 24 27 17 320 294 274 286 284 285 307 317 315 318 315 307 305 309 314 316 314 313 313 314
341 351 357 1 3 7 10 14 17 18 22 29 34 336 324 326 306 324 315 331 332 327 324 320 308 309 315 320 319 317 315 314 313
325 336 342 346 351 358 1 5 10 15 12 14 19 17 343 330 321 318 318 333 334 334 328 322 315 314 317 324 326 322 319 318 316
306 316 323 330 336 343 348 352 355 359 2 1 357 349 343 331 315 308 320 331 323 339 329 317 312 306 316 327 329 327 325 324 322
Height
1543 1542 1540 1539 1537 1536 1535 1533 1532 1531 1530 1528 1527 1527 1526 1526 1525 1525 1525 1525 1525 1526 1525 1525 1526 1525 1525 1525 1525 1525 1525 1525 1525
1544 1542 1540 1538 1537 1536 1534 1533 1532 1531 1530 1528 1527 1526 1525 1525 1524 1524 1523 1523 1523 1523 1523 1522 1523 1523 1523 1523 1523 1523 1523 1523 1524
1544 1542 1541 1539 1538 1537 1535 1534 1532 1531 1530 1528 1527 1526 1525 1524 1523 1523 1522 1521 1521 1521 1520 1520 1520 1521 1520 1520 1521 1521 1521 1521 1521
1544 1543 1542 1540 1538 1537 1535 1534 1532 1531 1530 1528 1527 1526 1525 1524 1523 1522 1522 1521 1521 1520 1519 1519 1518 1518 1518 1518 1518 1518 1518 1519 1519
1545 1543 1542 1540 1538 1537 1535 1534 1532 1531 1529 1528 1527 1525 1524 1523 1523 1522 1521 1521 1520 1519 1518 1517 1516 1516 1515 1515 1515 1515 1515 1516 1516
1545 1544 1542 1540 1538 1537 1535 1534 1533 1531 1529 1528 1526 1525 1524 1523 1522 1522 1521 1520 1520 1518 1517 1516 1515 1514 1513 1512 1512 1512 1512 1512 1512
1546 1544 1543 1541 1539 1537 1535 1534 1532 1531 1529 1528 1526 1525 1524 1523 1522 1521 1520 1519 1519 1517 1516 1515 1514 1512 1511 1510 1510 1509 1509 1508 1508
1546 1544 1543 1541 1539 1537 1535 1534 1532 1530 1528 1527 1526 1524 1523 1522 1521 1519 1518 1518 1518 1517 1516 1515 1514 1512 1510 1509 1508 1507 1506 1505 1504
1546 1545 1543 1541 1539 1537 1535 1534 1532 1530 1528 1526 1524 1523 1522 1521 1520 1518 1517 1517 1517 1516 1515 1515 1513 1512 1510 1509 1507 1506 1505 1504 1503
1546 1545 1543 1541 1539 1537 1535 1533 1531 1529 1527 1524 1522 1521 1520 1519 1518 1518 1516 1516 1515 1515 1514 1513 1511 1511 1510 1509 1507 1506 1505 1503 1502
1546 1544 1542 1540 1538 1536 1534 1532 1529 1527 1525 1523 1521 1520 1518 1517 1516 1517 1515 1515 1515 1514 1513 1512 1510 1509 1508 1507 1506 1504 1503 1502 1501
1546 1544 1542 1540 1538 1536 1534 1532 1529 1527 1524 1521 1520 1518 1518 1517 1518 1516 1515 1514 1513 1513 1512 1511 1509 1508 1507 1505 1504 1503 1501 1499 1498
1546 1544 1542 1540 1537 1535 1533 1530 1528 1526 1523 1521 1519 1517 1517 1518 1518 1517 1516 1515 1514 1512 1511 1509 1508 1506 1505 1503 1502 1500 1498 1496 1495
1546 1544 1541 1539 1537 1535 1533 1530 1528 1526 1523 1520 1519 1518 1517 1517 1516 1517 1517 1516 1514 1512 1510 1508 1506 1504 1502 1500 1499 1498 1496 1494 1493
1545 1544 1542 1540 1538 1536 1533 1531 1528 1526 1523 1520 1519 1518 1517 1516 1516 1515 1514 1513 1513 1511 1509 1506 1503 1501 1499 1498 1497 1495 1494 1492 1490
1545 1544 1542 1540 1538 1535 1533 1531 1529 1526 1524 1522 1520 1519 1517 1515 1515 1514 1513 1511 1509 1508 1506 1504 1502 1499 1497 1496 1494 1493 1491 1489 1487
1545 1544 1542 1540 1538 1536 1534 1531 1529 1527 1525 1522 1522 1523 1521 1517 1514 1512 1510 1509 1508 1506 1503 1502 1500 1498 1496 1494 1492 1490 1488 1486 1484
1544 1543 1542 1540 1538 1536 1534 1532 1530 1527 1525 1524 1523 1523 1522 1518 1514 1512 1511 1508 1505 1504 1502 1500 1499 1497 1495 1493 1490 1487 1485 1483 1481
1543 1542 1541 1540 1538 1536 1534 1532 1531 1529 1527 1525 1523 1522 1520 1519 1516 1513 1511 1508 1505 1502 1499 1499 1498 1496 1494 1492 1488 1485 1482 1479 1477
1542 1541 1540 1539 1537 1535 1534 1532 1530 1529 1527 1525 1523 1522 1520 1518 1517 1513 1511 1508 1505 1502 1500 1497 1495 1495 1492 1491 1487 1484 1480 1477 1474